Time,TemperatureF,DewpointF,PressureIn,WindDirection,WindDirectionDegrees,WindSpeedMPH,WindSpeedGustMPH,Humidity,HourlyPrecipIn,Conditions,Clouds,dailyrainin,SoftwareType,DateUTC
2013-05-02 00:04:00,73.0,62.6,29.75,ESE,112,18.1,-999.0,70,-99.99,,,0.00,Acu-Link.com,2013-05-02 05:04:00,
2013-05-02 00:19:00,73.4,61.8,29.77,North,0,4.7,-999.0,67,-99.99,,,0.00,Acu-Link.com,2013-05-02 05:19:00,
2013-05-02 00:34:00,73.6,62.4,29.80,SW,225,4.7,-999.0,68,-99.99,,,0.00,Acu-Link.com,2013-05-02 05:34:00,
2013-05-02 00:49:00,72.0,60.8,29.83,NNE,22,15.0,-999.0,68,-99.99,,,0.00,Acu-Link.com,2013-05-02 05:49:00,
2013-05-02 01:04:00,64.2,54.6,29.86,NNE,22,11.4,-999.0,71,-99.99,,,0.00,Acu-Link.com,2013-05-02 06:04:00,
2013-05-02 01:19:00,63.0,53.8,29.88,West,270,7.8,-999.0,72,-99.99,,,0.00,Acu-Link.com,2013-05-02 06:19:00,
2013-05-02 01:34:00,61.7,52.6,29.89,NNE,22,7.3,-999.0,72,-99.99,,,0.00,Acu-Link.com,2013-05-02 06:34:00,
2013-05-02 01:50:00,60.3,51.2,29.91,NW,315,7.8,-999.0,72,-99.99,,,0.00,Acu-Link.com,2013-05-02 06:50:00,
2013-05-02 02:05:00,59.0,50.0,29.90,NE,45,14.5,-999.0,72,-99.99,,,0.00,Acu-Link.com,2013-05-02 07:05:00,
2013-05-02 02:20:00,57.7,49.1,29.90,NE,45,13.5,-999.0,73,-99.99,,,0.00,Acu-Link.com,2013-05-02 07:20:00,
2013-05-02 02:35:00,56.3,48.1,29.92,WNW,292,20.2,-999.0,74,-99.99,,,0.00,Acu-Link.com,2013-05-02 07:35:00,
2013-05-02 02:50:00,55.0,47.2,29.93,WNW,292,13.0,-999.0,75,-99.99,,,0.00,Acu-Link.com,2013-05-02 07:50:00,
2013-05-02 03:05:00,53.2,45.8,29.94,NNW,337,14.0,-999.0,76,-99.99,,,0.00,Acu-Link.com,2013-05-02 08:05:00,
2013-05-02 03:21:00,53.1,45.7,29.95,NNE,22,13.0,-999.0,76,-99.99,,,0.00,Acu-Link.com,2013-05-02 08:21:00,
2013-05-02 03:36:00,52.2,44.9,29.96,NNW,337,15.5,-999.0,76,-99.99,,,0.00,Acu-Link.com,2013-05-02 08:36:00,
2013-05-02 03:51:00,51.4,44.1,29.97,NNE,22,8.3,-999.0,76,-99.99,,,0.00,Acu-Link.com,2013-05-02 08:51:00,
2013-05-02 04:06:00,49.5,41.9,29.98,North,0,13.5,-999.0,75,-99.99,,,0.00,Acu-Link.com,2013-05-02 09:06:00,
2013-05-02 04:21:00,48.6,41.4,30.00,NW,315,9.9,-999.0,76,-99.99,,,0.00,Acu-Link.com,2013-05-02 09:21:00,
2013-05-02 04:36:00,48.0,41.1,30.01,NNE,22,19.7,-999.0,77,-99.99,,,0.00,Acu-Link.com,2013-05-02 09:36:00,
2013-05-02 04:51:00,47.3,40.8,30.02,NNW,337,16.6,-999.0,78,-99.99,,,0.00,Acu-Link.com,2013-05-02 09:51:00,
2013-05-02 05:07:00,46.4,41.2,30.03,NNW,337,9.9,-999.0,82,-99.99,,,0.00,Acu-Link.com,2013-05-02 10:07:00,
2013-05-02 05:22:00,45.5,41.9,30.03,NNE,22,9.9,-999.0,87,-99.99,,,0.00,Acu-Link.com,2013-05-02 10:22:00,
2013-05-02 05:37:00,44.2,42.0,30.04,NNW,337,9.9,-999.0,92,-99.99,,,0.00,Acu-Link.com,2013-05-02 10:37:00,
2013-05-02 05:52:00,43.9,42.3,30.04,North,0,10.4,-999.0,94,-99.99,,,0.00,Acu-Link.com,2013-05-02 10:52:00,
2013-05-02 06:07:00,43.3,41.7,30.04,NNW,337,10.4,-999.0,94,-99.99,,,0.00,Acu-Link.com,2013-05-02 11:07:00,
2013-05-02 06:23:00,43.2,42.1,30.05,NW,315,7.8,-999.0,96,-99.99,,,0.00,Acu-Link.com,2013-05-02 11:23:00,
2013-05-02 06:38:00,42.8,40.9,30.04,NE,45,14.0,-999.0,93,-99.99,,,0.00,Acu-Link.com,2013-05-02 11:38:00,
2013-05-02 06:53:00,42.6,40.7,30.05,North,0,21.2,-999.0,93,-99.99,,,0.00,Acu-Link.com,2013-05-02 11:53:00,
2013-05-02 07:08:00,42.6,40.2,30.05,North,0,13.0,-999.0,91,-99.99,,,0.00,Acu-Link.com,2013-05-02 12:08:00,
2013-05-02 07:24:00,42.6,39.9,30.07,NW,315,16.1,-999.0,90,-99.99,,,0.00,Acu-Link.com,2013-05-02 12:24:00,
2013-05-02 07:39:00,42.8,40.1,30.09,NNW,337,11.9,-999.0,90,-99.99,,,0.00,Acu-Link.com,2013-05-02 12:39:00,
2013-05-02 07:54:00,42.6,39.6,30.09,North,0,13.5,-999.0,89,-99.99,,,0.00,Acu-Link.com,2013-05-02 12:54:00,
2013-05-02 08:09:00,42.6,39.3,30.11,NE,45,16.1,-999.0,88,-99.99,,,0.00,Acu-Link.com,2013-05-02 13:09:00,
2013-05-02 08:24:00,42.8,39.8,30.12,WNW,292,11.9,-999.0,89,-99.99,,,0.00,Acu-Link.com,2013-05-02 13:24:00,
2013-05-02 08:39:00,42.6,39.9,30.14,WNW,292,11.9,-999.0,90,-99.99,,,0.00,Acu-Link.com,2013-05-02 13:39:00,
2013-05-02 08:54:00,42.6,39.6,30.15,West,270,19.7,-999.0,89,-99.99,,,0.00,Acu-Link.com,2013-05-02 13:54:00,
2013-05-02 09:09:00,42.8,39.8,30.15,NW,315,13.5,-999.0,89,-99.99,,,0.00,Acu-Link.com,2013-05-02 14:09:00,
2013-05-02 09:24:00,43.0,39.4,30.16,NE,45,16.6,-999.0,87,-99.99,,,0.00,Acu-Link.com,2013-05-02 14:24:00,
2013-05-02 09:40:00,43.3,39.4,30.15,NNW,337,9.9,-999.0,86,-99.99,,,0.00,Acu-Link.com,2013-05-02 14:40:00,
2013-05-02 09:55:00,43.5,39.6,30.16,NNE,22,13.0,-999.0,86,-99.99,,,0.00,Acu-Link.com,2013-05-02 14:55:00,
2013-05-02 10:10:00,43.5,39.6,30.17,NNW,337,14.0,-999.0,86,-99.99,,,0.00,Acu-Link.com,2013-05-02 15:10:00,
2013-05-02 10:25:00,43.7,39.8,30.17,NNE,22,11.9,-999.0,86,-99.99,,,0.00,Acu-Link.com,2013-05-02 15:25:00,
2013-05-02 10:41:00,44.4,39.6,30.18,North,0,16.1,-999.0,83,-99.99,,,0.00,Acu-Link.com,2013-05-02 15:41:00,
2013-05-02 10:56:00,44.2,39.1,30.19,NNE,22,11.4,-999.0,82,-99.99,,,0.00,Acu-Link.com,2013-05-02 15:56:00,
2013-05-02 11:11:00,43.7,38.3,30.20,North,0,11.9,-999.0,81,-99.99,,,0.00,Acu-Link.com,2013-05-02 16:11:00,
2013-05-02 11:26:00,44.4,38.9,30.21,NNW,337,17.1,-999.0,81,-99.99,,,0.00,Acu-Link.com,2013-05-02 16:26:00,
2013-05-02 11:41:00,43.9,38.5,30.22,NNW,337,13.5,-999.0,81,-99.99,,,0.00,Acu-Link.com,2013-05-02 16:41:00,
2013-05-02 11:57:00,43.3,39.7,30.23,WNW,292,11.4,-999.0,87,-99.99,,,0.00,Acu-Link.com,2013-05-02 16:57:00,
2013-05-02 12:12:00,43.9,40.0,30.24,NNW,337,10.9,-999.0,86,-99.99,,,0.00,Acu-Link.com,2013-05-02 17:12:00,
2013-05-02 12:27:00,43.5,40.5,30.24,NNE,22,8.9,-999.0,89,-99.99,,,0.00,Acu-Link.com,2013-05-02 17:27:00,
2013-05-02 12:42:00,43.3,39.7,30.25,NW,315,15.0,-999.0,87,-99.99,,,0.00,Acu-Link.com,2013-05-02 17:42:00,
2013-05-02 12:57:00,43.7,39.5,30.25,NW,315,9.4,-999.0,85,-99.99,,,0.00,Acu-Link.com,2013-05-02 17:57:00,
2013-05-02 13:12:00,44.1,41.1,30.24,WNW,292,6.8,-999.0,89,-99.99,,,0.00,Acu-Link.com,2013-05-02 18:12:00,
2013-05-02 13:27:00,44.1,39.9,30.24,NNE,22,14.0,-999.0,85,-99.99,,,0.00,Acu-Link.com,2013-05-02 18:27:00,
2013-05-02 13:42:00,43.9,39.7,30.25,NNW,337,9.4,-999.0,85,-99.99,,,0.00,Acu-Link.com,2013-05-02 18:42:00,
2013-05-02 13:57:00,45.0,39.5,30.25,NNE,22,11.9,-999.0,81,-99.99,,,0.00,Acu-Link.com,2013-05-02 18:57:00,
2013-05-02 14:12:00,45.0,38.6,30.25,NE,45,13.5,-999.0,78,-99.99,,,0.00,Acu-Link.com,2013-05-02 19:12:00,
2013-05-02 14:27:00,44.4,38.6,30.25,NW,315,11.4,-999.0,80,-99.99,,,0.00,Acu-Link.com,2013-05-02 19:27:00,
2013-05-02 14:42:00,44.1,37.7,30.26,West,270,18.6,-999.0,78,-99.99,,,0.00,Acu-Link.com,2013-05-02 19:42:00,
2013-05-02 14:57:00,44.2,37.8,30.26,NNE,22,6.8,-999.0,78,-99.99,,,0.00,Acu-Link.com,2013-05-02 19:57:00,
2013-05-02 15:12:00,44.8,37.7,30.26,NNW,337,14.5,-999.0,76,-99.99,,,0.00,Acu-Link.com,2013-05-02 20:12:00,
2013-05-02 15:27:00,45.0,36.9,30.26,NNE,22,16.1,-999.0,73,-99.99,,,0.00,Acu-Link.com,2013-05-02 20:27:00,
2013-05-02 15:43:00,45.0,36.9,30.25,NNE,22,11.4,-999.0,73,-99.99,,,0.00,Acu-Link.com,2013-05-02 20:43:00,
2013-05-02 15:58:00,44.6,36.8,30.26,NNW,337,16.1,-999.0,74,-99.99,,,0.00,Acu-Link.com,2013-05-02 20:58:00,
2013-05-02 16:13:00,44.6,36.5,30.25,NW,315,13.0,-999.0,73,-99.99,,,0.00,Acu-Link.com,2013-05-02 21:13:00,
2013-05-02 16:28:00,44.8,36.3,30.25,NW,315,13.5,-999.0,72,-99.99,,,0.00,Acu-Link.com,2013-05-02 21:28:00,
2013-05-02 16:43:00,44.4,35.6,30.26,NNE,22,8.3,-999.0,71,-99.99,,,0.00,Acu-Link.com,2013-05-02 21:43:00,
2013-05-02 16:58:00,44.8,36.0,30.25,WSW,247,10.9,-999.0,71,-99.99,,,0.00,Acu-Link.com,2013-05-02 21:58:00,
2013-05-02 17:13:00,45.3,36.1,30.24,NNE,22,8.9,-999.0,70,-99.99,,,0.00,Acu-Link.com,2013-05-02 22:13:00,
2013-05-02 17:28:00,46.4,36.4,30.24,NNE,22,11.9,-999.0,68,-99.99,,,0.00,Acu-Link.com,2013-05-02 22:28:00,
2013-05-02 17:43:00,47.3,36.5,30.23,NNE,22,11.4,-999.0,66,-99.99,,,0.00,Acu-Link.com,2013-05-02 22:43:00,
2013-05-02 17:59:00,47.8,36.2,30.23,North,0,16.6,-999.0,64,-99.99,,,0.00,Acu-Link.com,2013-05-02 22:59:00,
2013-05-02 18:14:00,48.4,36.4,30.23,SW,225,10.4,-999.0,63,-99.99,,,0.00,Acu-Link.com,2013-05-02 23:14:00,
2013-05-02 18:29:00,48.6,36.2,30.23,NNW,337,15.5,-999.0,62,-99.99,,,0.00,Acu-Link.com,2013-05-02 23:29:00,
2013-05-02 18:44:00,48.7,36.3,30.23,NNE,22,14.5,-999.0,62,-99.99,,,0.00,Acu-Link.com,2013-05-02 23:44:00,
2013-05-02 18:59:00,48.6,36.2,30.23,North,0,13.0,-999.0,62,-99.99,,,0.00,Acu-Link.com,2013-05-02 23:59:00,
2013-05-02 19:14:00,48.6,35.8,30.23,NW,315,10.9,-999.0,61,-99.99,,,0.00,Acu-Link.com,2013-05-03 00:14:00,
2013-05-02 19:29:00,48.6,35.4,30.24,NNE,22,9.9,-999.0,60,-99.99,,,0.00,Acu-Link.com,2013-05-03 00:29:00,
2013-05-02 19:45:00,48.4,35.2,30.23,NNW,337,10.4,-999.0,60,-99.99,,,0.00,Acu-Link.com,2013-05-03 00:45:00,
2013-05-02 20:00:00,48.4,35.2,30.25,NNE,22,13.0,-999.0,60,-99.99,,,0.00,Acu-Link.com,2013-05-03 01:00:00,
2013-05-02 20:15:00,48.2,35.0,30.25,NNW,337,7.3,-999.0,60,-99.99,,,0.00,Acu-Link.com,2013-05-03 01:15:00,
2013-05-02 20:30:00,48.2,35.0,30.26,NNE,22,8.3,-999.0,60,-99.99,,,0.00,Acu-Link.com,2013-05-03 01:30:00,
2013-05-02 20:45:00,47.7,34.5,30.26,NNW,337,14.5,-999.0,60,-99.99,,,0.00,Acu-Link.com,2013-05-03 01:45:00,
2013-05-02 21:02:00,47.1,34.4,30.27,WNW,292,8.3,-999.0,61,-99.99,,,0.00,Acu-Link.com,2013-05-03 02:02:00,
2013-05-02 21:18:00,46.6,34.7,30.26,NNW,337,4.2,-999.0,63,-99.99,,,0.00,Acu-Link.com,2013-05-03 02:18:00,
2013-05-02 21:34:00,46.2,34.7,30.27,NNW,337,6.8,-999.0,64,-99.99,,,0.00,Acu-Link.com,2013-05-03 02:34:00,
2013-05-02 21:49:00,46.0,34.1,30.27,NNW,337,4.2,-999.0,63,-99.99,,,0.00,Acu-Link.com,2013-05-03 02:49:00,
2013-05-02 22:04:00,45.7,34.2,30.28,NNW,337,3.2,-999.0,64,-99.99,,,0.00,Acu-Link.com,2013-05-03 03:04:00,
2013-05-02 22:19:00,45.0,34.3,30.27,NW,315,3.2,-999.0,66,-99.99,,,0.00,Acu-Link.com,2013-05-03 03:19:00,
2013-05-02 22:35:00,44.8,34.1,30.27,NNW,337,4.7,-999.0,66,-99.99,,,0.00,Acu-Link.com,2013-05-03 03:35:00,
2013-05-02 22:50:00,44.2,34.3,30.26,NNW,337,2.7,-999.0,68,-99.99,,,0.00,Acu-Link.com,2013-05-03 03:50:00,
2013-05-02 23:05:00,43.5,34.4,30.27,NNW,337,3.7,-999.0,70,-99.99,,,0.00,Acu-Link.com,2013-05-03 04:05:00,
2013-05-02 23:20:00,43.3,34.5,30.26,NW,315,4.2,-999.0,71,-99.99,,,0.00,Acu-Link.com,2013-05-03 04:20:00,
2013-05-02 23:35:00,42.6,34.6,30.26,NW,315,2.7,-999.0,73,-99.99,,,0.00,Acu-Link.com,2013-05-03 04:35:00,
2013-05-02 23:50:00,42.4,34.4,30.26,NNW,337,2.7,-999.0,73,-99.99,,,0.00,Acu-Link.com,2013-05-03 04:50:00,